Regional Weather Roundup
Issued by NWS

Home | Current Version | Previous Version | Text Only | Print | Product List | Glossary Off
Versions: 1 2 3 4 5 6 7 8 9 10 11 12 13 14 15 16 17 18 19 20 21 22 23 24 25 26 27 28 29 30 31 32 33 34 35 36 37 38 39 40 41 42 43 44 45 46 47 48 49 50

000
ASUS43 KOAX 291602
RWRNE

WEATHER ROUNDUP FOR NEBRASKA
NATIONAL WEATHER SERVICE OMAHA NE
1000 AM CST THU JAN 29 2015

NOTES: SATELLITE DATA IS BEING USED TO AUGMENT CLOUD COVER ABOVE
       12000 FEET.
       "FAIR" INDICATES FEW OR NO CLOUDS BELOW 12,000 FEET WITH NO
       SIGNIFICANT WEATHER AND/OR OBSTRUCTIONS TO VISIBILITY.

  * THESE STATIONS DO NOT REPORT WEATHER SUCH AS RAIN...SNOW OR FOG.

NEZ001>004-019>022-054>056-291700-
NEBRASKA PANHANDLE

CITY           SKY/WX    TMP DP  RH WIND       PRES   REMARKS
SCOTTSBLUFF    SUNNY     34  24  67 NW12      30.48S WCI  25
ALLIANCE       SUNNY     30  25  81 NW5       30.47R WCI  25
CHADRON        SUNNY     31  26  82 CALM      30.51R
SIDNEY         SUNNY     33  24  69 NW14      30.47R WCI  23
$$

NEZ057>060-069>072-079>082-291700-
SOUTHWEST NEBRASKA

CITY           SKY/WX    TMP DP  RH WIND       PRES   REMARKS
NORTH PLATTE   SUNNY     32  25  75 NW10      30.48R WCI  24
IMPERIAL       SUNNY     33  24  69 NW13      30.50R WCI  24
MCCOOK         SUNNY     36  27  69 NW15      30.49R WCI  27
$$

NEZ005>010-023>029-035>040-094-291700-
NORTH CENTRAL NEBRASKA

CITY           SKY/WX    TMP DP  RH WIND       PRES   REMARKS
VALENTINE      PTSUNNY   35  21  56 N18G25    30.46R WCI  24
BROKEN BOW     CLOUDY    36  24  62 N24G33    30.44R WCI  24
ORD            CLOUDY    36  23  59 N20G38    30.43R WCI  25
$$

NEZ041-046>049-061>064-073>077-083>087-291700-
SOUTH CENTRAL NEBRASKA

CITY           SKY/WX    TMP DP  RH WIND       PRES   REMARKS
GRAND ISLAND   CLOUDY    37  24  59 N26G36    30.43R WCI  25
HASTINGS       PTSUNNY   39  24  55 N24G38    30.43R WCI  28
KEARNEY *      CLOUDY    37  23  56 N25G32    30.44R WCI  26
$$

NEZ011>018-030>034-042>045-291700-
NORTHEAST NEBRASKA

CITY           SKY/WX    TMP DP  RH WIND       PRES   REMARKS
NORFOLK        CLOUDY    36  28  73 N18G28    30.39R WCI  26
COLUMBUS *     CLOUDY    37  23  56 N29       30.41R WCI  25
TEKAMAH        CLOUDY    37  27  67 NW30G37   30.37R WCI  24
$$

NEZ050>053-065>068-078-088>093-291700-
SOUTHEAST NEBRASKA

CITY           SKY/WX    TMP DP  RH WIND       PRES   REMARKS
LINCOLN        CLOUDY    39  27  62 N30G39    30.40R WCI  27
OMAHA EPPLEY   CLOUDY    37  27  67 N25G38    30.34R WCI  25
FALLS CITY     CLOUDY    38  26  62 N17G32    30.33R WCI  28
$$

NEZ044-045-051>053-067-291700-
OMAHA AREA

CITY           SKY/WX    TMP DP  RH WIND       PRES   REMARKS
OMAHA EPPLEY   CLOUDY    37  27  67 N25G38    30.34R WCI  25
OFFUTT AFB     CLOUDY    37  27  66 N21G31    30.35R WCI  27
$$



USA.gov is the U.S. government's official web portal to all federal, state and local government web resources and services.